Time,TemperatureF,DewpointF,PressureIn,WindDirection,WindDirectionDegrees,WindSpeedMPH,WindSpeedGustMPH,Humidity,HourlyPrecipIn,Conditions,Clouds,dailyrainin,SoftwareType,DateUTC
2013-07-09 00:01:00,75.3,72.2,29.94,SW,216,0.0,0.0,90,0.00,,,0.00,VWS V14.01,2013-07-09 04:01:00,
2013-07-09 00:02:00,75.4,72.3,29.94,SW,215,0.0,0.0,90,0.00,,,0.00,VWS V14.01,2013-07-09 04:02:00,
2013-07-09 00:03:00,75.4,72.3,29.94,SW,216,0.0,0.0,90,0.00,,,0.00,VWS V14.01,2013-07-09 04:03:00,
2013-07-09 00:08:00,75.4,72.3,29.94,SW,215,0.0,0.0,90,0.00,,,0.00,VWS V14.01,2013-07-09 04:08:00,
2013-07-09 00:10:00,75.4,72.3,29.94,SW,216,0.0,0.0,90,0.00,,,0.00,VWS V14.01,2013-07-09 04:10:00,
2013-07-09 00:15:00,75.4,72.3,29.94,SW,216,0.0,0.0,90,0.00,,,0.00,VWS V14.01,2013-07-09 04:15:00,
2013-07-09 00:20:00,75.4,72.3,29.94,SW,216,0.0,0.0,90,0.00,,,0.00,VWS V14.01,2013-07-09 04:20:00,
2013-07-09 00:25:00,75.4,72.3,29.94,SW,216,0.0,0.0,90,0.00,,,0.00,VWS V14.01,2013-07-09 04:25:00,
2013-07-09 00:30:00,75.3,72.2,29.94,SW,216,0.0,0.0,90,0.00,,,0.00,VWS V14.01,2013-07-09 04:30:00,
2013-07-09 00:35:00,75.3,72.5,29.94,SW,216,0.0,0.0,91,0.00,,,0.00,VWS V14.01,2013-07-09 04:35:00,
2013-07-09 00:40:00,75.2,72.4,29.94,SW,216,0.0,0.0,91,0.00,,,0.00,VWS V14.01,2013-07-09 04:40:00,
2013-07-09 00:45:00,75.2,72.4,29.94,SW,216,0.0,0.0,91,0.00,,,0.00,VWS V14.01,2013-07-09 04:45:00,
2013-07-09 00:50:00,75.1,72.6,29.94,SW,215,0.0,0.0,92,0.00,,,0.00,VWS V14.01,2013-07-09 04:50:00,
2013-07-09 00:56:00,75.1,72.6,29.95,SW,216,0.0,0.0,92,0.00,,,0.00,VWS V14.01,2013-07-09 04:56:00,
2013-07-09 01:01:00,75.0,72.5,29.94,SW,216,0.0,0.0,92,0.00,,,0.00,VWS V14.01,2013-07-09 05:01:00,
2013-07-09 01:06:00,74.9,72.4,29.94,SW,216,0.0,0.0,92,0.00,,,0.00,VWS V14.01,2013-07-09 05:06:00,
2013-07-09 01:11:00,74.9,72.7,29.94,SW,216,0.0,0.0,93,0.00,,,0.00,VWS V14.01,2013-07-09 05:11:00,
2013-07-09 01:16:00,74.7,72.2,29.94,SW,216,0.0,0.0,92,0.00,,,0.00,VWS V14.01,2013-07-09 05:16:00,
2013-07-09 01:21:00,74.6,72.4,29.94,SW,216,0.0,0.0,93,0.00,,,0.00,VWS V14.01,2013-07-09 05:21:00,
2013-07-09 01:26:00,74.5,72.3,29.94,SW,216,0.0,0.0,93,0.00,,,0.00,VWS V14.01,2013-07-09 05:26:00,
2013-07-09 01:31:00,74.4,72.2,29.94,SW,216,0.0,0.0,93,0.00,,,0.00,VWS V14.01,2013-07-09 05:31:00,
2013-07-09 01:36:00,74.3,72.2,29.94,SW,215,0.0,0.0,93,0.00,,,0.00,VWS V14.01,2013-07-09 05:36:00,
2013-07-09 01:41:00,74.2,72.1,29.94,SW,215,0.0,0.0,93,0.00,,,0.00,VWS V14.01,2013-07-09 05:41:00,
2013-07-09 01:46:00,74.1,72.3,29.93,SW,216,0.0,0.0,94,0.00,,,0.00,VWS V14.01,2013-07-09 05:46:00,
2013-07-09 01:51:00,74.0,72.2,29.93,SW,216,0.0,0.0,94,0.00,,,0.00,VWS V14.01,2013-07-09 05:51:00,
2013-07-09 01:56:00,74.1,72.3,29.93,SW,216,0.0,0.0,94,0.00,,,0.00,VWS V14.01,2013-07-09 05:56:00,
2013-07-09 02:01:00,74.1,72.3,29.93,SW,215,0.0,0.0,94,0.00,,,0.00,VWS V14.01,2013-07-09 06:01:00,
2013-07-09 02:06:00,74.0,72.2,29.93,SW,216,0.0,0.0,94,0.00,,,0.00,VWS V14.01,2013-07-09 06:06:00,
2013-07-09 02:11:00,74.0,72.2,29.92,SW,216,0.0,0.0,94,0.00,,,0.00,VWS V14.01,2013-07-09 06:11:00,
2013-07-09 02:16:00,74.0,72.2,29.92,SW,216,0.0,0.0,94,0.00,,,0.00,VWS V14.01,2013-07-09 06:16:00,
2013-07-09 02:21:00,74.0,72.2,29.92,SW,216,0.0,0.0,94,0.00,,,0.00,VWS V14.01,2013-07-09 06:21:00,
2013-07-09 02:26:00,74.0,72.2,29.92,SW,215,0.0,0.0,94,0.00,,,0.00,VWS V14.01,2013-07-09 06:26:00,
2013-07-09 02:31:00,73.9,72.1,29.92,SW,216,0.0,0.0,94,0.00,,,0.00,VWS V14.01,2013-07-09 06:31:00,
2013-07-09 02:36:00,73.8,72.0,29.92,SW,215,0.0,0.0,94,0.00,,,0.00,VWS V14.01,2013-07-09 06:36:00,
2013-07-09 02:41:00,73.7,71.9,29.92,SW,216,0.0,0.0,94,0.00,,,0.00,VWS V14.01,2013-07-09 06:41:00,
2013-07-09 02:46:00,73.6,72.1,29.91,SW,215,0.0,0.0,95,0.00,,,0.00,VWS V14.01,2013-07-09 06:46:00,
2013-07-09 02:51:00,73.6,72.1,29.91,SW,216,0.0,0.0,95,0.00,,,0.00,VWS V14.01,2013-07-09 06:51:00,
2013-07-09 02:56:00,73.6,72.1,29.91,SW,216,0.0,0.0,95,0.00,,,0.00,VWS V14.01,2013-07-09 06:56:00,
2013-07-09 03:01:00,73.6,72.1,29.91,SW,215,0.0,0.0,95,0.00,,,0.00,VWS V14.01,2013-07-09 07:01:00,
2013-07-09 03:06:00,73.7,72.2,29.91,SW,216,0.0,0.0,95,0.00,,,0.00,VWS V14.01,2013-07-09 07:06:00,
2013-07-09 03:11:00,73.7,72.2,29.91,SW,216,0.0,0.0,95,0.00,,,0.00,VWS V14.01,2013-07-09 07:11:00,
2013-07-09 03:16:00,73.8,72.3,29.91,SW,215,0.0,0.0,95,0.00,,,0.00,VWS V14.01,2013-07-09 07:16:00,
2013-07-09 03:21:00,73.8,72.0,29.91,SW,215,0.0,0.0,94,0.00,,,0.00,VWS V14.01,2013-07-09 07:21:00,
2013-07-09 03:26:00,73.7,71.9,29.91,SW,215,0.0,0.0,94,0.00,,,0.00,VWS V14.01,2013-07-09 07:26:00,
2013-07-09 03:31:00,73.8,72.0,29.91,SW,216,0.0,0.0,94,0.00,,,0.00,VWS V14.01,2013-07-09 07:31:00,
2013-07-09 03:37:00,73.9,72.1,29.91,SW,216,0.0,0.0,94,0.00,,,0.00,VWS V14.01,2013-07-09 07:37:00,
2013-07-09 03:42:00,74.0,72.2,29.91,SW,216,0.0,0.0,94,0.00,,,0.00,VWS V14.01,2013-07-09 07:42:00,
2013-07-09 03:47:00,74.1,71.9,29.91,SW,216,3.0,4.0,93,0.00,,,0.00,VWS V14.01,2013-07-09 07:47:00,
2013-07-09 03:53:00,74.2,72.1,29.92,SW,215,0.0,1.0,93,0.00,,,0.00,VWS V14.01,2013-07-09 07:53:00,
2013-07-09 03:58:00,74.3,72.2,29.92,SW,216,0.0,0.0,93,0.00,,,0.00,VWS V14.01,2013-07-09 07:58:00,
2013-07-09 04:03:00,74.4,72.2,29.92,SW,216,0.0,0.0,93,0.00,,,0.00,VWS V14.01,2013-07-09 08:03:00,
2013-07-09 04:08:00,74.3,72.2,29.92,SW,216,0.0,0.0,93,0.00,,,0.00,VWS V14.01,2013-07-09 08:08:00,
2013-07-09 04:13:00,74.2,72.1,29.92,SW,216,0.0,0.0,93,0.00,,,0.00,VWS V14.01,2013-07-09 08:13:00,
2013-07-09 04:18:00,74.2,72.1,29.92,SW,215,0.0,0.0,93,0.00,,,0.00,VWS V14.01,2013-07-09 08:18:00,
2013-07-09 04:23:00,74.0,71.8,29.92,SW,216,0.0,0.0,93,0.00,,,0.00,VWS V14.01,2013-07-09 08:23:00,
2013-07-09 04:28:00,74.0,71.8,29.92,SW,216,4.0,4.0,93,0.00,,,0.00,VWS V14.01,2013-07-09 08:28:00,
2013-07-09 04:33:00,73.9,71.8,29.92,SW,216,0.0,0.0,93,0.00,,,0.00,VWS V14.01,2013-07-09 08:33:00,
2013-07-09 04:38:00,73.9,71.8,29.92,SW,215,2.0,3.0,93,0.00,,,0.00,VWS V14.01,2013-07-09 08:38:00,
2013-07-09 04:43:00,73.9,71.8,29.92,SW,215,0.0,1.0,93,0.00,,,0.00,VWS V14.01,2013-07-09 08:43:00,
2013-07-09 04:49:00,73.8,72.0,29.92,SW,216,0.0,2.0,94,0.00,,,0.00,VWS V14.01,2013-07-09 08:49:00,
2013-07-09 04:54:00,73.7,71.9,29.92,SW,215,0.0,1.0,94,0.00,,,0.00,VWS V14.01,2013-07-09 08:54:00,
2013-07-09 04:59:00,73.7,71.9,29.92,SW,216,0.0,1.0,94,0.00,,,0.00,VWS V14.01,2013-07-09 08:59:00,
2013-07-09 05:04:00,73.7,71.9,29.92,SW,216,0.0,2.0,94,0.00,,,0.00,VWS V14.01,2013-07-09 09:04:00,
2013-07-09 05:09:00,73.7,71.9,29.92,SW,215,0.0,0.0,94,0.00,,,0.00,VWS V14.01,2013-07-09 09:09:00,
2013-07-09 05:14:00,73.7,71.9,29.92,SW,216,0.0,0.0,94,0.00,,,0.00,VWS V14.01,2013-07-09 09:14:00,
2013-07-09 05:19:00,73.7,71.9,29.92,SW,216,0.0,1.0,94,0.00,,,0.00,VWS V14.01,2013-07-09 09:19:00,
2013-07-09 05:24:00,73.6,71.8,29.92,SW,216,3.0,3.0,94,0.00,,,0.00,VWS V14.01,2013-07-09 09:24:00,
2013-07-09 05:29:00,73.6,71.8,29.92,SW,216,0.0,1.0,94,0.00,,,0.00,VWS V14.01,2013-07-09 09:29:00,
2013-07-09 05:34:00,73.6,72.1,29.92,SW,216,1.0,1.0,95,0.00,,,0.00,VWS V14.01,2013-07-09 09:34:00,
2013-07-09 05:39:00,73.6,72.1,29.92,SW,215,0.0,0.0,95,0.00,,,0.00,VWS V14.01,2013-07-09 09:39:00,
2013-07-09 05:44:00,73.6,72.1,29.93,SW,216,0.0,0.0,95,0.00,,,0.00,VWS V14.01,2013-07-09 09:44:00,
2013-07-09 05:49:00,73.5,72.0,29.93,SW,216,0.0,0.0,95,0.00,,,0.00,VWS V14.01,2013-07-09 09:49:00,
2013-07-09 05:54:00,73.5,72.0,29.93,SW,216,0.0,0.0,95,0.00,,,0.00,VWS V14.01,2013-07-09 09:54:00,
2013-07-09 05:59:00,73.3,71.8,29.93,SW,216,0.0,0.0,95,0.00,,,0.00,VWS V14.01,2013-07-09 09:59:00,
2013-07-09 06:04:00,73.3,71.8,29.93,SW,215,0.0,0.0,95,0.00,,,0.00,VWS V14.01,2013-07-09 10:04:00,
2013-07-09 06:09:00,73.2,71.7,29.93,SW,216,0.0,0.0,95,0.00,,,0.00,VWS V14.01,2013-07-09 10:09:00,
2013-07-09 06:14:00,73.1,71.6,29.93,SW,215,0.0,0.0,95,0.00,,,0.00,VWS V14.01,2013-07-09 10:14:00,
2013-07-09 06:19:00,73.1,71.9,29.93,SW,215,0.0,0.0,96,0.00,,,0.00,VWS V14.01,2013-07-09 10:19:00,
2013-07-09 06:24:00,73.0,71.8,29.93,SW,215,0.0,0.0,96,0.00,,,0.00,VWS V14.01,2013-07-09 10:24:00,
2013-07-09 06:29:00,73.0,71.8,29.93,SW,215,0.0,0.0,96,0.00,,,0.00,VWS V14.01,2013-07-09 10:29:00,
2013-07-09 06:34:00,73.1,71.9,29.93,SW,216,0.0,0.0,96,0.00,,,0.00,VWS V14.01,2013-07-09 10:34:00,
2013-07-09 06:39:00,73.0,71.8,29.94,SW,216,0.0,0.0,96,0.00,,,0.00,VWS V14.01,2013-07-09 10:39:00,
2013-07-09 06:44:00,73.0,71.8,29.94,SW,216,0.0,0.0,96,0.00,,,0.00,VWS V14.01,2013-07-09 10:44:00,
2013-07-09 06:49:00,73.1,71.9,29.93,SW,215,4.0,4.0,96,0.00,,,0.00,VWS V14.01,2013-07-09 10:49:00,
2013-07-09 06:54:00,73.2,72.0,29.94,SW,216,0.0,1.0,96,0.00,,,0.00,VWS V14.01,2013-07-09 10:54:00,
2013-07-09 06:59:00,73.3,72.1,29.94,SW,216,2.0,3.0,96,0.00,,,0.00,VWS V14.01,2013-07-09 10:59:00,
2013-07-09 07:04:00,73.3,72.1,29.94,SW,216,0.0,0.0,96,0.00,,,0.00,VWS V14.01,2013-07-09 11:04:00,
2013-07-09 07:09:00,73.3,71.8,29.94,SW,215,0.0,1.0,95,0.00,,,0.00,VWS V14.01,2013-07-09 11:09:00,
2013-07-09 07:14:00,73.4,71.9,29.94,SW,216,0.0,1.0,95,0.00,,,0.00,VWS V14.01,2013-07-09 11:14:00,
2013-07-09 07:19:00,73.5,72.0,29.94,SW,216,0.0,0.0,95,0.00,,,0.00,VWS V14.01,2013-07-09 11:19:00,
2013-07-09 07:24:00,73.5,72.0,29.94,SW,216,0.0,0.0,95,0.00,,,0.00,VWS V14.01,2013-07-09 11:24:00,
2013-07-09 07:29:00,73.5,72.0,29.94,SW,216,0.0,1.0,95,0.00,,,0.00,VWS V14.01,2013-07-09 11:29:00,
2013-07-09 07:34:00,73.6,72.1,29.94,SW,216,0.0,0.0,95,0.00,,,0.00,VWS V14.01,2013-07-09 11:34:00,
2013-07-09 07:39:00,73.7,72.2,29.94,SW,215,0.0,1.0,95,0.00,,,0.00,VWS V14.01,2013-07-09 11:39:00,
2013-07-09 07:44:00,73.8,72.3,29.94,SW,216,0.0,0.0,95,0.00,,,0.00,VWS V14.01,2013-07-09 11:44:00,
2013-07-09 07:49:00,73.9,72.4,29.94,SW,215,0.0,2.0,95,0.00,,,0.00,VWS V14.01,2013-07-09 11:49:00,
2013-07-09 07:55:00,74.0,72.5,29.94,SW,215,0.0,1.0,95,0.00,,,0.00,VWS V14.01,2013-07-09 11:55:00,
2013-07-09 08:00:00,74.1,72.6,29.93,SW,216,0.0,0.0,95,0.00,,,0.00,VWS V14.01,2013-07-09 12:00:00,
2013-07-09 08:05:00,74.2,72.7,29.93,SW,215,0.0,0.0,95,0.00,,,0.00,VWS V14.01,2013-07-09 12:05:00,
2013-07-09 08:10:00,74.4,72.9,29.93,SW,216,1.0,1.0,95,0.00,,,0.00,VWS V14.01,2013-07-09 12:10:00,
2013-07-09 08:15:00,74.5,73.0,29.92,SW,215,1.0,1.0,95,0.00,,,0.00,VWS V14.01,2013-07-09 12:15:00,
2013-07-09 08:20:00,74.7,73.2,29.93,SW,216,1.0,2.0,95,0.00,,,0.00,VWS V14.01,2013-07-09 12:20:00,
2013-07-09 08:25:00,74.9,73.1,29.93,SW,215,3.0,3.0,94,0.00,,,0.00,VWS V14.01,2013-07-09 12:25:00,
2013-07-09 08:30:00,75.1,72.9,29.93,SW,218,1.0,1.0,93,0.00,,,0.00,VWS V14.01,2013-07-09 12:30:00,
2013-07-09 08:35:00,75.5,73.0,29.93,SW,219,1.0,3.0,92,0.00,,,0.00,VWS V14.01,2013-07-09 12:35:00,
2013-07-09 08:40:00,75.9,73.1,29.93,SW,218,3.0,5.0,91,0.00,,,0.00,VWS V14.01,2013-07-09 12:40:00,
2013-07-09 08:45:00,76.3,73.5,29.93,SW,215,0.0,0.0,91,0.00,,,0.00,VWS V14.01,2013-07-09 12:45:00,
2013-07-09 08:50:00,76.7,73.2,29.93,SW,217,6.0,6.0,89,0.00,,,0.00,VWS V14.01,2013-07-09 12:50:00,
2013-07-09 08:55:00,77.2,73.7,29.92,SW,217,2.0,3.0,89,0.00,,,0.00,VWS V14.01,2013-07-09 12:55:00,
2013-07-09 09:00:00,77.7,74.2,29.93,SW,217,1.0,4.0,89,0.00,,,0.00,VWS V14.01,2013-07-09 13:00:00,
2013-07-09 09:05:00,78.3,74.1,29.93,SW,221,1.0,2.0,87,0.00,,,0.00,VWS V14.01,2013-07-09 13:05:00,
2013-07-09 09:10:00,78.7,74.2,29.93,SW,222,4.0,4.0,86,0.00,,,0.00,VWS V14.01,2013-07-09 13:10:00,
2013-07-09 09:15:00,79.3,74.8,29.93,SW,219,4.0,4.0,86,0.00,,,0.00,VWS V14.01,2013-07-09 13:15:00,
2013-07-09 09:20:00,79.9,75.0,29.93,SW,231,1.0,3.0,85,0.00,,,0.00,VWS V14.01,2013-07-09 13:20:00,
2013-07-09 09:25:00,80.3,75.0,29.93,SW,225,5.0,6.0,84,0.00,,,0.00,VWS V14.01,2013-07-09 13:25:00,
2013-07-09 09:30:00,80.4,75.1,29.93,SW,227,3.0,3.0,84,0.00,,,0.00,VWS V14.01,2013-07-09 13:30:00,
2013-07-09 09:35:00,80.5,75.2,29.93,WSW,249,9.0,9.0,84,0.00,,,0.00,VWS V14.01,2013-07-09 13:35:00,
2013-07-09 09:40:00,80.5,75.2,29.93,WSW,248,3.0,4.0,84,0.00,,,0.00,VWS V14.01,2013-07-09 13:40:00,
2013-07-09 09:45:00,80.3,75.0,29.93,SW,221,2.0,3.0,84,0.00,,,0.00,VWS V14.01,2013-07-09 13:45:00,
2013-07-09 09:50:00,80.4,75.1,29.93,SW,236,6.0,7.0,84,0.00,,,0.00,VWS V14.01,2013-07-09 13:50:00,
2013-07-09 09:55:00,80.5,75.2,29.93,SW,223,3.0,3.0,84,0.00,,,0.00,VWS V14.01,2013-07-09 13:55:00,
2013-07-09 10:00:00,80.6,75.3,29.93,WSW,245,2.0,2.0,84,0.00,,,0.00,VWS V14.01,2013-07-09 14:00:00,
2013-07-09 10:05:00,80.8,75.5,29.93,WSW,244,1.0,1.0,84,0.00,,,0.00,VWS V14.01,2013-07-09 14:05:00,
2013-07-09 10:10:00,81.1,75.8,29.93,WSW,239,9.0,9.0,84,0.00,,,0.00,VWS V14.01,2013-07-09 14:10:00,
2013-07-09 10:15:00,81.5,76.2,29.93,West,260,6.0,9.0,84,0.00,,,0.00,VWS V14.01,2013-07-09 14:15:00,
2013-07-09 10:20:00,81.5,75.5,29.94,SSW,211,4.0,5.0,82,0.00,,,0.00,VWS V14.01,2013-07-09 14:20:00,
2013-07-09 10:25:00,81.4,75.4,29.94,SSW,211,1.0,10.0,82,0.00,,,0.00,VWS V14.01,2013-07-09 14:25:00,
2013-07-09 10:30:00,81.4,76.1,29.94,SW,215,1.0,5.0,84,0.00,,,0.00,VWS V14.01,2013-07-09 14:30:00,
2013-07-09 10:35:00,81.3,75.7,29.93,WSW,250,3.0,8.0,83,0.00,,,0.00,VWS V14.01,2013-07-09 14:35:00,
2013-07-09 10:40:00,81.4,76.1,29.94,SW,225,7.0,7.0,84,0.00,,,0.00,VWS V14.01,2013-07-09 14:40:00,
2013-07-09 10:45:00,81.3,75.7,29.93,SW,229,8.0,8.0,83,0.00,,,0.00,VWS V14.01,2013-07-09 14:45:00,
2013-07-09 10:50:00,81.3,75.7,29.93,SW,225,5.0,5.0,83,0.00,,,0.00,VWS V14.01,2013-07-09 14:50:00,
2013-07-09 10:55:00,81.4,75.7,29.94,SW,234,0.0,2.0,83,0.00,,,0.00,VWS V14.01,2013-07-09 14:55:00,
2013-07-09 11:00:00,81.2,75.6,29.93,SW,232,3.0,4.0,83,0.00,,,0.00,VWS V14.01,2013-07-09 15:00:00,
2013-07-09 11:06:00,81.3,75.7,29.93,WSW,244,0.0,1.0,83,0.00,,,0.00,VWS V14.01,2013-07-09 15:06:00,
2013-07-09 11:11:00,81.6,76.3,29.93,SW,225,3.0,7.0,84,0.00,,,0.00,VWS V14.01,2013-07-09 15:11:00,
2013-07-09 11:16:00,81.3,75.3,29.93,WSW,249,0.0,3.0,82,0.00,,,0.00,VWS V14.01,2013-07-09 15:16:00,
2013-07-09 11:21:00,81.4,76.1,29.93,SW,221,4.0,4.0,84,0.00,,,0.00,VWS V14.01,2013-07-09 15:21:00,
2013-07-09 11:26:00,81.8,76.1,29.93,SW,225,2.0,5.0,83,0.00,,,0.00,VWS V14.01,2013-07-09 15:26:00,
2013-07-09 11:31:00,82.0,76.3,29.93,WSW,250,3.0,3.0,83,0.00,,,0.00,VWS V14.01,2013-07-09 15:31:00,
2013-07-09 11:36:00,82.0,76.0,29.93,SW,235,2.0,3.0,82,0.00,,,0.00,VWS V14.01,2013-07-09 15:36:00,
2013-07-09 11:41:00,82.2,76.5,29.93,SSW,211,5.0,9.0,83,0.00,,,0.00,VWS V14.01,2013-07-09 15:41:00,
2013-07-09 11:46:00,82.3,76.3,29.92,SW,227,5.0,9.0,82,0.00,,,0.00,VWS V14.01,2013-07-09 15:46:00,
2013-07-09 11:51:00,82.7,76.7,29.92,SSW,211,7.0,8.0,82,0.00,,,0.00,VWS V14.01,2013-07-09 15:51:00,
2013-07-09 11:56:00,83.0,76.6,29.92,SSW,209,5.0,6.0,81,0.00,,,0.00,VWS V14.01,2013-07-09 15:56:00,
2013-07-09 12:01:00,83.4,77.0,29.92,SSW,213,0.0,1.0,81,0.00,,,0.00,VWS V14.01,2013-07-09 16:01:00,
2013-07-09 12:06:00,83.6,77.2,29.92,SW,223,5.0,5.0,81,0.00,,,0.00,VWS V14.01,2013-07-09 16:06:00,
2013-07-09 12:11:00,84.0,77.2,29.92,SW,230,3.0,4.0,80,0.00,,,0.00,VWS V14.01,2013-07-09 16:11:00,
2013-07-09 12:16:00,84.6,77.0,29.92,SW,217,7.0,13.0,78,0.00,,,0.00,VWS V14.01,2013-07-09 16:16:00,
2013-07-09 12:21:00,84.6,76.6,29.92,SSW,203,5.0,7.0,77,0.00,,,0.00,VWS V14.01,2013-07-09 16:21:00,
2013-07-09 12:26:00,84.5,76.5,29.92,SW,228,3.0,5.0,77,0.00,,,0.00,VWS V14.01,2013-07-09 16:26:00,
2013-07-09 12:31:00,84.6,76.2,29.92,WSW,248,5.0,6.0,76,0.00,,,0.00,VWS V14.01,2013-07-09 16:31:00,
2013-07-09 12:36:00,84.5,76.9,29.92,WSW,238,4.0,6.0,78,0.00,,,0.00,VWS V14.01,2013-07-09 16:36:00,
2013-07-09 12:41:00,84.4,76.8,29.92,SW,214,2.0,5.0,78,0.00,,,0.00,VWS V14.01,2013-07-09 16:41:00,
2013-07-09 12:46:00,84.3,76.7,29.92,SW,236,2.0,3.0,78,0.00,,,0.00,VWS V14.01,2013-07-09 16:46:00,
2013-07-09 12:51:00,84.2,75.8,29.92,WSW,249,6.0,6.0,76,0.00,,,0.00,VWS V14.01,2013-07-09 16:51:00,
2013-07-09 12:56:00,84.2,75.8,29.92,WSW,250,1.0,1.0,76,0.00,,,0.00,VWS V14.01,2013-07-09 16:56:00,
2013-07-09 13:01:00,84.2,75.8,29.92,SW,215,1.0,6.0,76,0.00,,,0.00,VWS V14.01,2013-07-09 17:01:00,
2013-07-09 13:06:00,84.1,76.1,29.91,SW,232,0.0,1.0,77,0.00,,,0.00,VWS V14.01,2013-07-09 17:06:00,
2013-07-09 13:11:00,84.2,76.6,29.91,WSW,242,1.0,1.0,78,0.00,,,0.00,VWS V14.01,2013-07-09 17:11:00,
2013-07-09 13:16:00,84.3,76.3,29.91,WSW,245,2.0,5.0,77,0.00,,,0.00,VWS V14.01,2013-07-09 17:16:00,
2013-07-09 13:21:00,84.3,77.1,29.91,WSW,244,0.0,2.0,79,0.00,,,0.00,VWS V14.01,2013-07-09 17:21:00,
2013-07-09 13:26:00,84.3,76.7,29.91,SW,227,0.0,2.0,78,0.00,,,0.00,VWS V14.01,2013-07-09 17:26:00,
2013-07-09 13:31:00,84.3,76.3,29.91,SW,225,0.0,1.0,77,0.00,,,0.00,VWS V14.01,2013-07-09 17:31:00,
2013-07-09 13:36:00,84.4,76.4,29.91,SW,233,2.0,4.0,77,0.00,,,0.00,VWS V14.01,2013-07-09 17:36:00,
2013-07-09 13:41:00,84.3,76.7,29.91,SW,232,0.0,0.0,78,0.00,,,0.00,VWS V14.01,2013-07-09 17:41:00,
2013-07-09 13:46:00,84.3,77.5,29.91,SW,233,0.0,1.0,80,0.00,,,0.00,VWS V14.01,2013-07-09 17:46:00,
2013-07-09 13:51:00,84.3,76.3,29.91,SW,227,1.0,3.0,77,0.00,,,0.00,VWS V14.01,2013-07-09 17:51:00,
2013-07-09 13:56:00,84.1,76.5,29.91,SW,229,0.0,1.0,78,0.00,,,0.00,VWS V14.01,2013-07-09 17:56:00,
2013-07-09 14:01:00,83.7,76.1,29.91,WSW,242,1.0,2.0,78,0.00,,,0.00,VWS V14.01,2013-07-09 18:01:00,
2013-07-09 14:07:00,83.6,76.0,29.91,WSW,238,1.0,1.0,78,0.00,,,0.00,VWS V14.01,2013-07-09 18:07:00,
2013-07-09 14:12:00,83.5,76.3,29.91,WSW,240,0.0,1.0,79,0.00,,,0.00,VWS V14.01,2013-07-09 18:12:00,
2013-07-09 14:17:00,83.5,76.3,29.91,WSW,240,0.0,1.0,79,0.00,,,0.00,VWS V14.01,2013-07-09 18:17:00,
2013-07-09 14:22:00,83.4,76.6,29.91,WSW,241,0.0,1.0,80,0.00,,,0.00,VWS V14.01,2013-07-09 18:22:00,
2013-07-09 14:27:00,83.3,76.1,29.91,WSW,238,2.0,4.0,79,0.00,,,0.00,VWS V14.01,2013-07-09 18:27:00,
2013-07-09 14:32:00,83.3,76.5,29.91,WSW,240,0.0,2.0,80,0.00,,,0.00,VWS V14.01,2013-07-09 18:32:00,
2013-07-09 14:37:00,83.3,76.5,29.91,WSW,239,0.0,0.0,80,0.00,,,0.00,VWS V14.01,2013-07-09 18:37:00,
2013-07-09 14:42:00,83.4,76.6,29.91,WSW,240,0.0,0.0,80,0.00,,,0.00,VWS V14.01,2013-07-09 18:42:00,
2013-07-09 14:47:00,83.7,76.9,29.90,WSW,240,0.0,1.0,80,0.00,,,0.00,VWS V14.01,2013-07-09 18:47:00,
2013-07-09 14:52:00,84.3,76.7,29.90,WSW,250,3.0,4.0,78,0.00,,,0.00,VWS V14.01,2013-07-09 18:52:00,
2013-07-09 14:57:00,84.8,77.6,29.90,WSW,250,1.0,1.0,79,0.00,,,0.00,VWS V14.01,2013-07-09 18:57:00,
2013-07-09 15:02:00,85.0,76.2,29.89,SW,232,3.0,4.0,75,0.00,,,0.00,VWS V14.01,2013-07-09 19:02:00,
2013-07-09 15:07:00,84.8,76.8,29.89,SSW,205,3.0,5.0,77,0.00,,,0.00,VWS V14.01,2013-07-09 19:07:00,